Regional Weather Roundup
Issued by NWS San Diego, CA

Current Version | Previous Version | Text Only | Print | Product List | Glossary On
Versions: 1 2 3 4 5 6 7 8 9 10 11 12 13 14 15 16 17 18 19 20 21 22 23 24 25 26 27 28 29 30 31 32 33 34 35 36 37 38 39 40 41 42 43 44 45 46 47 48 49 50
000
ASUS46 KSGX 221311
RWRSGX

SAN DIEGO HOURLY WEATHER ROUNDUP
NATIONAL WEATHER SERVICE SAN DIEGO CA
600 AM PDT TUE AUG 22 2017

NOTE: "FAIR" INDICATES FEW OR NO CLOUDS BELOW 12,000 FEET WITH NO
SIGNIFICANT WEATHER AND/OR OBSTRUCTIONS TO VISIBILITY.

CAZ042-043-060-061-PZZ750-775-221400-

GREATER SAN DIEGO AREA

CITY           SKY/WX    TMP DP  RH WIND       PRES   REMARKS
SAN DIEGO AP   CLOUDY    70  63  78 NW6       30.00R
NATIONAL CITY    N/A     69  64  84 CALM      30.01R
IMPERIAL BEACH CLOUDY    69  62  78 NW7         N/A
BROWN FIELD    CLOUDY    65  61  87 E5        29.99R
MIRAMAR MCAS   PTCLDY    71  62  73 CALM      29.99R
MONTGOMERY FLD CLOUDY    70  63  78 NW3       30.00R
GILLESPIE FLD  CLOUDY    66  61  82 NE5       30.00R

$$

NORTH SAN DIEGO COUNTY

CITY           SKY/WX    TMP DP  RH WIND       PRES   REMARKS
CAMP PENDLETON CLEAR     47  32  56 CALM      29.99R
OCEANSIDE AP   CLEAR     59  57  93 CALM      29.98R
OCEANSIDE HBR    N/A     62  59  91 E3        30.01R
VISTA            N/A     59  54  82 CALM      29.96R
CARLSBAD       CLEAR     64  62  93 CALM      29.98R
DEL MAR          N/A     67  64  89 CALM      30.00R
LA JOLLA SCRIP   N/A     68  65  90 SE1       29.98R
FALLBROOK        N/A     60  60 100 CALM      30.01R
ESCONDIDO        N/A     65  61  87 CALM      30.00R
POWAY            N/A     64  60  86 CALM      30.00R

$$

EAST SAN DIEGO COUNTY

CITY           SKY/WX    TMP DP  RH WIND       PRES   REMARKS
RAMONA         FOG       60  60 100 NW3       30.01R VSB 1/4
SANTEE LAKES     N/A     64  62  91 CALM      29.98R
LA MESA          N/A     65  62  91 CALM      29.92R
JAMUL            N/A     61  60  96 CALM      29.99R
DESCANSO N       N/A     69  46  43 CALM      29.88R
CAMPO            N/A     57  42  57 NE7       30.02R

$$

ORANGE COUNTY AND THE LOS ANGELES BASIN

CITY           SKY/WX    TMP DP  RH WIND       PRES   REMARKS
JOHN WAYNE AP  MOCLDY    67  63  87 VRB3      29.99R
LAKE FOREST FR   N/A     60  56  85 CALM      29.89R
HUNTINGTON BCH   N/A     64  62  94 CALM      30.00R
LOS ALAMITOS   FAIR      63  60  91 CALM      29.99R
FULLERTON      PTCLDY    65  62  90 CALM      29.98R
LONG BEACH     CLEAR     66  62  87 NW3       29.99R
L.A. AP        PTCLDY    66  64  93 W7        29.99R
L.A. DOWNTOWN  CLEAR     66  62  87 CALM      29.98R

$$

THE INLAND EMPIRE

CITY           SKY/WX    TMP DP  RH WIND       PRES   REMARKS
CORONA         CLEAR     55  53  93 CALM      30.00R
CHINO          CLEAR     61  57  87 CALM      30.00R
ONTARIO        CLEAR     62  58  86 CALM      29.99R
SAN BERNARDINO FAIR      66  56  70 CALM      30.00R
RIVERSIDE AP   CLEAR     63  59  87 SW3       30.00R
MORENO VALLEY    N/A     65  59  82 CALM      28.11R
MARCH ARB      CLEAR     60  60 100 CALM      30.00R
HORSETHIEF CYN   N/A     60  52  72 CALM      29.98R
PERRIS           N/A     64  60  87 CALM      30.00R
HEMET EAST       N/A     66  53  63 CALM      30.01R
FRENCH VALLEY  FAIR      61  55  82 CALM      30.01R
TEMECULA         N/A     60  57  91 CALM      30.05R

$$

SAN BERNARDINO AND RIVERSIDE COUNTY MOUNTAINS

CITY           SKY/WX    TMP DP  RH WIND       PRES   REMARKS
BIG BEAR AP    CLEAR     39  28  65 CALM      30.33R
PINE COVE        N/A     61  36  39 CALM      29.95R

$$

SOUTHERN DESERT INCLUDING THE COACHELLA VALLEY

CITY           SKY/WX    TMP DP  RH WIND       PRES   REMARKS
PALM SPRINGS   CLEAR     82  51  34 NW8       29.91R
THOUSAND PALMS   N/A     79  44  28 NW3       29.86R
PALM DESERT      N/A     78  56  46 CALM      30.75S
THERMAL        CLEAR     69  55  60 NW5       29.85R
BLYTHE         CLEAR     82  56  40 CALM      29.89R
IMPERIAL AP    CLEAR     75  56  51 W3        29.85R
EL CENTRO NAS  PTCLDY    74  49  41 W5        29.87R
YUMA AZ        CLEAR     85  57  38 CALM      29.87R
MEXICALI       PTCLDY    79  64  61 E5        29.88

$$

UPPER DESERT

CITY           SKY/WX    TMP DP  RH WIND       PRES   REMARKS
VICTORVILLE AP CLEAR     61  39  44 CALM      30.09R
HESPERIA         N/A     63  42  46 W3        30.05R
PALMDALE       CLEAR     62  43  49 S7        30.07R
LANCASTER      CLEAR     56  34  43 CALM      30.07R
DAGGETT        CLEAR     71  43  36 W9        30.03R
29 PALMS N     CLEAR     74  40  29 NW7       30.08R
NEEDLES        CLEAR     81  53  37 W3        29.95R

$$

REGIONAL REPORTS

CITY           SKY/WX    TMP DP  RH WIND       PRES   REMARKS
SANTA BARBARA  CLEAR     57  55  93 CALM      29.99R
SANDBERG       CLEAR     69  38  32 S6        30.18R
LAS VEGAS NV   PTCLDY    78  53  41 S3        30.06R
PHOENIX AZ     MOCLDY    83  56  39 SW3       29.92R
TIJUANA        CLOUDY    66  63  88 CALM      30.02
ENSENADA NW      N/A     64  32  29 CALM      29.97R

$$

OFFSHORE ISLANDS

CITY           SKY/WX    TMP DP  RH WIND       PRES   REMARKS
CATALINA ARPT  FOG       60  60 100 W7        30.02R VSB<1/4
SAN NICOLAS IS PTCLDY   N/A N/A N/A W9        30.01R

$$

MARINE AND OFFSHORE BUOY REPORTS

STATION/POSITION SKY/WX   TEMP    WIND        PRES    VSBY  SWELL
                          AIR SEA DIR/SP/G                  HT/PER/DIR
                          (F)     (DEG/KT/KT) (MB)    (MI)  (FT/S/D)
TANNER BANKS               64 66  290/ 10/ 12 1015.9R         3/290/11
S CLEMENTE BASIN           66 70  300/  8/ 10 1015.9R         2/210/13
SAN NICOLAS IS.               64                N/A           2/300/11
SO. S. ROSA ISLA           63 64  280/ 12/ 14 1015.7R         3/280/11
W. S. BARBARA CH           64     290/ 10/ 12 1015.7
M. S. BARBARA CH           64     240/  8/ 10 1016.4
S. MONICA BASIN               71  270/  8/ 10 1015.4R         2/180/10
S PEDRO CHANNEL               68                N/A           2/160/13
CMP PENDLETON NS              69                N/A           2/220/13
OCEANSIDE OFFSHR              69                N/A           2/200/13
TORREY PINES OTR              72                N/A           2/210/11
SAN DIEGO BAY                 74              1015.7R
POINT LOMA SOUTH              69                N/A           2/180/13

$$




USA.gov is the U.S. government's official web portal to all federal, state and local government web resources and services.